Wind_Speed
34 33 29 23 15 12 14 16 19 19 20 22 23 22 21 20 19 17 16 15 14 12 12 11 12 14 12 10 12 12 11 12
33 34 35 30 23 17 18 19 20 21 21 21 22 20 18 16 15 14 12 12 12 10 9 10 9 11 12 10 10 12 11 12
12 14 31 21 21 19 20 19 21 22 22 21 19 19 17 15 13 12 11 11 11 7 7 6 5 10 12 16 14 15 9 14
24 32 25 21 21 20 21 22 22 21 18 19 18 16 14 14 15 13 13 11 8 7 3 1 4 9 11 15 15 13 13 12
27 23 23 21 21 21 22 23 22 20 17 16 15 13 13 11 11 11 11 10 7 3 3 1 2 4 8 12 13 14 14 14
26 25 23 22 21 22 24 24 21 18 16 13 12 11 10 11 13 9 10 7 5 5 6 4 4 10 13 12 12 15 13 11
25 24 25 24 23 24 24 22 20 17 14 12 10 8 9 11 11 8 9 8 8 7 6 8 11 14 13 11 12 13 17 18
26 24 24 25 27 24 23 21 19 15 13 13 14 11 10 10 9 11 11 11 11 9 10 12 14 14 12 16 15 16 16 16
27 24 26 27 26 22 21 20 18 17 13 11 8 9 11 15 13 12 12 12 11 11 12 13 13 14 15 17 16 15 16 19
29 27 28 26 23 23 25 24 20 16 14 7 3 7 16 14 11 11 11 10 8 11 13 15 16 17 18 15 12 14 13 13
32 30 31 25 27 28 27 22 19 16 12 9 5 11 14 12 11 10 8 8 11 12 15 16 18 18 17 15 13 10 11 5
34 34 31 28 29 27 25 21 19 14 9 9 9 14 14 13 12 10 8 9 12 14 16 16 17 18 17 15 14 10 6 7
35 35 33 31 32 31 27 23 17 11 9 12 14 13 12 12 9 7 10 12 14 15 15 16 18 17 18 19 12 8 12 5
29 32 33 32 29 28 26 23 16 11 11 13 13 12 11 8 8 11 13 14 16 15 16 17 18 17 19 20 4 14 8 22
28 29 31 30 28 28 27 23 17 18 16 16 15 12 10 9 12 13 14 17 16 16 18 20 20 18 18 14 7 5 24 10
30 27 28 29 28 32 30 25 25 22 19 16 16 13 13 15 14 14 17 16 16 17 20 22 19 19 18 19 17 18 21 21
32 28 23 26 29 33 31 26 22 21 21 19 18 19 19 17 14 14 16 17 18 20 22 20 17 17 15 16 18 21 24 22
32 30 24 26 27 34 32 27 23 24 26 24 22 21 18 15 14 15 17 18 21 22 20 18 17 15 15 19 20 20 20 23
29 24 26 27 29 31 31 30 28 28 29 28 25 22 19 17 18 18 21 20 20 19 17 17 16 16 18 20 22 23 23 22
23 26 26 28 30 30 30 32 33 30 30 27 22 19 19 19 17 19 20 17 18 17 18 16 15 16 19 22 24 24 25 27
Wind_Direction
146 141 129 119 127 132 133 144 144 142 139 135 128 125 124 122 117 112 108 100 93 85 83 74 65 47 52 48 36 22 12 11
110 121 133 140 137 165 152 149 148 140 137 132 128 128 123 118 114 111 107 102 92 85 73 62 45 20 21 23 10 8 2 354
126 124 140 153 166 160 154 150 146 141 139 135 127 120 114 116 111 104 102 100 92 76 62 42 15 350 355 358 355 1 352 348
154 149 158 166 165 161 155 153 149 145 141 133 127 121 108 106 114 119 117 125 118 109 116 320 333 345 348 348 349 353 350 348
161 166 171 172 169 162 158 154 149 146 145 140 141 137 129 134 129 147 143 157 154 169 202 213 11 341 335 329 328 324 329 332
166 166 174 175 172 164 159 160 157 155 156 153 154 151 147 153 168 169 171 174 174 191 191 190 286 318 325 324 324 323 323 321
165 169 175 173 170 161 160 164 168 174 166 163 170 174 165 167 175 187 180 183 209 219 250 268 280 300 315 315 317 308 308 308
170 164 173 174 168 167 171 176 181 182 182 179 180 186 202 204 201 212 214 226 245 270 284 294 305 312 311 318 315 303 302 296
175 167 171 172 174 182 187 185 191 188 176 160 177 199 210 223 235 231 228 242 262 280 296 306 302 302 304 314 312 307 297 299
174 178 180 186 190 192 193 193 199 193 186 191 242 217 229 227 220 223 231 252 271 293 298 298 304 307 307 317 313 302 308 319
184 186 190 195 188 190 197 200 204 204 219 265 262 208 208 206 210 227 243 274 289 291 298 309 310 317 326 328 324 308 307 304
191 193 193 194 196 202 204 204 206 223 268 266 221 202 198 204 218 234 259 284 291 303 308 312 319 323 327 322 321 299 230 289
192 194 196 199 205 208 211 210 221 257 250 210 205 202 205 216 227 255 282 292 306 312 321 322 321 323 327 321 335 180 281 268
196 199 201 203 209 210 211 216 238 246 237 202 203 204 217 234 258 281 293 305 311 314 316 319 320 319 318 325 295 299 238 316
204 202 207 207 209 210 211 222 238 230 220 213 208 212 221 240 256 272 297 312 308 307 315 318 315 312 315 322 315 279 311 318
208 209 208 211 214 214 217 226 239 231 218 220 222 224 228 246 270 297 299 297 300 305 308 307 305 307 310 313 312 306 310 310
213 207 213 217 219 217 222 231 238 221 215 220 214 217 234 249 265 278 283 284 287 293 299 297 302 304 310 304 306 306 305 300
207 205 209 211 216 213 220 221 224 217 217 217 215 221 233 242 252 265 275 284 294 299 299 304 308 302 303 305 308 309 303 301
202 208 209 209 207 210 214 219 224 225 223 220 217 226 225 236 254 263 283 286 294 306 307 306 301 292 292 295 299 300 301 298
216 204 202 205 207 212 216 223 225 224 220 215 219 226 230 245 274 277 282 296 308 312 313 312 312 312 304 303 303 301 296 295
Height
1527 1532 1539 1547 1555 1556 1556 1559 1560 1562 1564 1564 1564 1567 1569 1571 1574 1576 1578 1579 1579 1579 1579 1580 1579 1581 1581 1580 1580 1578 1578 1576
1529 1535 1542 1547 1553 1558 1558 1560 1560 1562 1565 1566 1566 1568 1570 1574 1575 1577 1580 1581 1581 1580 1581 1581 1581 1581 1581 1581 1580 1579 1579 1578
1542 1544 1546 1551 1555 1559 1561 1562 1563 1563 1565 1566 1568 1570 1572 1574 1577 1579 1580 1582 1583 1581 1582 1581 1580 1581 1580 1580 1578 1578 1577 1576
1544 1544 1548 1553 1555 1558 1562 1563 1564 1565 1566 1567 1570 1572 1574 1576 1575 1580 1579 1581 1582 1581 1581 1580 1579 1580 1580 1578 1576 1577 1577 1574
1543 1548 1549 1553 1557 1559 1562 1564 1565 1566 1565 1568 1570 1571 1574 1577 1577 1579 1579 1580 1580 1581 1579 1579 1579 1579 1578 1577 1576 1575 1574 1572
1543 1547 1551 1555 1557 1560 1561 1563 1564 1565 1566 1568 1570 1572 1573 1575 1577 1578 1579 1579 1580 1580 1579 1578 1578 1578 1577 1576 1575 1574 1573 1570
1543 1547 1551 1554 1557 1559 1562 1563 1562 1564 1567 1569 1571 1573 1575 1576 1576 1577 1579 1578 1579 1578 1577 1577 1578 1577 1577 1575 1574 1573 1571 1568
1545 1548 1551 1556 1558 1559 1560 1562 1564 1565 1569 1568 1571 1573 1575 1577 1575 1576 1576 1577 1577 1576 1574 1575 1574 1576 1574 1573 1570 1569 1567 1566
1546 1549 1552 1555 1558 1559 1560 1561 1565 1567 1568 1569 1570 1571 1572 1575 1574 1574 1574 1575 1574 1573 1573 1572 1575 1573 1572 1570 1568 1566 1565 1564
1547 1550 1551 1555 1557 1558 1559 1561 1566 1566 1567 1568 1570 1567 1572 1572 1572 1572 1573 1572 1570 1570 1571 1572 1570 1569 1568 1567 1566 1565 1564 1564
1545 1548 1551 1553 1554 1557 1560 1561 1563 1564 1565 1566 1565 1566 1569 1569 1569 1570 1570 1568 1568 1570 1570 1568 1567 1565 1565 1563 1564 1564 1563 1561
1544 1547 1549 1551 1554 1556 1558 1559 1561 1561 1561 1564 1564 1566 1565 1565 1567 1567 1568 1567 1568 1566 1566 1565 1563 1562 1563 1563 1562 1561 1559 1558
1541 1543 1546 1549 1551 1553 1554 1557 1559 1558 1561 1562 1563 1562 1561 1564 1566 1567 1567 1566 1565 1564 1562 1562 1561 1560 1559 1559 1557 1556 1555 1553
1539 1542 1544 1546 1549 1550 1552 1555 1556 1558 1559 1560 1559 1560 1561 1563 1566 1565 1564 1562 1562 1561 1561 1561 1560 1558 1557 1555 1554 1553 1550 1549
1537 1539 1541 1544 1547 1549 1550 1552 1554 1555 1556 1556 1557 1559 1561 1563 1564 1563 1561 1559 1559 1559 1558 1558 1557 1556 1553 1554 1551 1548 1545 1543
1534 1537 1539 1543 1545 1546 1546 1548 1549 1552 1554 1555 1556 1558 1560 1559 1558 1557 1557 1557 1556 1556 1554 1553 1551 1553 1551 1549 1548 1546 1544 1538
1530 1534 1539 1540 1541 1543 1544 1546 1548 1551 1552 1553 1555 1555 1554 1555 1554 1553 1553 1554 1552 1551 1550 1550 1546 1545 1546 1546 1545 1542 1541 1539
1527 1531 1532 1536 1537 1539 1540 1543 1545 1547 1548 1550 1551 1551 1552 1553 1554 1553 1551 1551 1551 1548 1545 1544 1541 1542 1542 1541 1538 1536 1534 1532
1523 1527 1529 1532 1534 1535 1537 1540 1542 1544 1545 1547 1548 1549 1550 1549 1549 1549 1554 1548 1546 1546 1543 1540 1538 1537 1536 1536 1534 1531 1529 1527
1520 1522 1526 1529 1531 1533 1535 1538 1540 1542 1544 1545 1546 1546 1546 1549 1552 1547 1545 1542 1542 1541 1540 1537 1536 1534 1534 1533 1530 1528 1525 1523